TimeEDT,TemperatureF,Dew PointF,Humidity,Sea Level PressureIn,VisibilityMPH,Wind Direction,Wind SpeedMPH,Gust SpeedMPH,PrecipitationIn,Events,Conditions,WindDirDegrees,DateUTC
12:53 AM,63.0,59.0,87,30.12,10.0,Calm,Calm,-,N/A,,Clear,0,2013-05-16 04:53:00
1:53 AM,61.0,57.9,90,30.11,10.0,Calm,Calm,-,N/A,,Clear,0,2013-05-16 05:53:00
2:53 AM,59.0,55.9,90,30.09,10.0,Calm,Calm,-,N/A,,Clear,0,2013-05-16 06:53:00
3:53 AM,60.1,57.0,90,30.07,10.0,Calm,Calm,-,N/A,,Clear,0,2013-05-16 07:53:00
4:53 AM,57.0,55.0,93,30.07,10.0,Calm,Calm,-,N/A,,Clear,0,2013-05-16 08:53:00
5:53 AM,57.9,55.9,93,30.08,10.0,Calm,Calm,-,N/A,,Clear,0,2013-05-16 09:53:00
6:53 AM,59.0,57.9,96,30.10,8.0,Calm,Calm,-,N/A,,Clear,0,2013-05-16 10:53:00
7:53 AM,64.0,61.0,90,30.13,10.0,Calm,Calm,-,N/A,,Clear,0,2013-05-16 11:53:00
8:53 AM,71.1,63.0,75,30.14,10.0,South,6.9,-,N/A,,Clear,170,2013-05-16 12:53:00
9:53 AM,75.9,60.1,58,30.15,10.0,South,8.1,-,N/A,,Clear,180,2013-05-16 13:53:00
10:53 AM,78.1,59.0,52,30.15,10.0,SSW,4.6,-,N/A,,Clear,200,2013-05-16 14:53:00
11:53 AM,81.0,59.0,47,30.15,10.0,South,4.6,-,N/A,,Partly Cloudy,190,2013-05-16 15:53:00
12:53 PM,82.9,55.9,39,30.13,10.0,Variable,6.9,-,N/A,,Clear,0,2013-05-16 16:53:00
1:53 PM,86.0,55.9,36,30.10,10.0,Variable,5.8,-,N/A,,Clear,0,2013-05-16 17:53:00
2:53 PM,87.1,54.0,32,30.09,10.0,ENE,6.9,-,N/A,,Clear,70,2013-05-16 18:53:00
3:53 PM,86.0,54.0,33,30.06,10.0,ESE,4.6,-,N/A,,Clear,120,2013-05-16 19:53:00
4:53 PM,86.0,55.9,36,30.04,10.0,ESE,8.1,-,N/A,,Clear,120,2013-05-16 20:53:00
5:53 PM,82.9,63.0,51,30.03,10.0,WNW,8.1,-,N/A,,Clear,290,2013-05-16 21:53:00
6:53 PM,82.0,64.0,54,30.03,10.0,WNW,9.2,-,N/A,,Partly Cloudy,290,2013-05-16 22:53:00
7:53 PM,78.1,64.9,64,30.03,10.0,NW,5.8,-,N/A,,Clear,310,2013-05-16 23:53:00
8:53 PM,75.0,64.9,71,30.04,10.0,NW,5.8,-,N/A,,Clear,320,2013-05-17 00:53:00
9:53 PM,73.0,66.0,79,30.06,10.0,NNW,5.8,-,N/A,,Clear,330,2013-05-17 01:53:00
10:53 PM,73.0,66.0,79,30.09,10.0,NNE,3.5,-,N/A,,Clear,20,2013-05-17 02:53:00
11:53 PM,72.0,64.0,76,30.08,10.0,ESE,5.8,-,N/A,,Clear,110,2013-05-17 03:53:00